Time,TemperatureF,DewpointF,PressureIn,WindDirection,WindDirectionDegrees,WindSpeedMPH,WindSpeedGustMPH,Humidity,HourlyPrecipIn,Conditions,Clouds,dailyrainin,SolarRadiationWatts/m^2,SoftwareType,DateUTC
2013-09-13 00:04:00,63.0,63.0,-100.00,NW,322,2.0,6.0,99,0.04,,,0.33,0.000000,,2013-09-13 04:04:00,
2013-09-13 00:44:00,60.0,59.0,-100.00,West,272,2.0,8.0,96,0.02,,,0.35,0.000000,,2013-09-13 04:44:00,
2013-09-13 00:54:00,60.0,59.0,-100.00,West,272,2.0,8.0,96,0.02,,,0.35,0.000000,,2013-09-13 04:54:00,
2013-09-13 01:03:00,60.0,59.0,-100.00,West,272,2.0,8.0,96,0.02,,,0.35,0.000000,,2013-09-13 05:03:00,
2013-09-13 01:43:00,58.0,57.0,-100.00,WNW,292,1.0,5.0,97,0.00,,,0.35,0.000000,,2013-09-13 05:43:00,
2013-09-13 01:53:00,58.0,57.0,-100.00,WNW,292,1.0,5.0,97,0.00,,,0.35,0.000000,,2013-09-13 05:53:00,
2013-09-13 02:02:00,58.0,57.0,-100.00,WNW,292,1.0,5.0,97,0.00,,,0.35,0.000000,,2013-09-13 06:02:00,
2013-09-13 02:42:00,56.0,56.0,-100.00,NNW,335,2.0,5.0,99,0.00,,,0.35,0.000000,,2013-09-13 06:42:00,
2013-09-13 02:52:00,56.0,56.0,-100.00,NNW,335,2.0,5.0,99,0.00,,,0.35,0.000000,,2013-09-13 06:52:00,
2013-09-13 03:02:00,56.0,56.0,-100.00,NNW,335,2.0,5.0,99,0.00,,,0.35,0.000000,,2013-09-13 07:02:00,
2013-09-13 03:43:00,56.0,56.0,-100.00,NW,308,2.0,5.0,99,0.00,,,0.35,0.000000,,2013-09-13 07:43:00,
2013-09-13 03:52:00,56.0,56.0,-100.00,NW,308,2.0,5.0,99,0.00,,,0.35,0.000000,,2013-09-13 07:52:00,
2013-09-13 04:02:00,56.0,56.0,-100.00,NW,308,2.0,5.0,99,0.00,,,0.35,0.000000,,2013-09-13 08:02:00,
2013-09-13 04:42:00,56.0,55.0,-100.00,West,276,2.0,7.0,98,0.00,,,0.35,0.000000,,2013-09-13 08:42:00,
2013-09-13 04:52:00,56.0,55.0,-100.00,West,276,2.0,7.0,98,0.00,,,0.35,0.000000,,2013-09-13 08:52:00,
2013-09-13 05:02:00,56.0,55.0,-100.00,West,276,2.0,7.0,98,0.00,,,0.35,0.000000,,2013-09-13 09:02:00,
2013-09-13 05:43:00,56.0,55.0,-100.00,North,9,2.0,5.0,98,0.00,,,0.35,0.000000,,2013-09-13 09:43:00,
2013-09-13 05:54:00,56.0,55.0,-100.00,North,9,2.0,5.0,98,0.00,,,0.35,0.000000,,2013-09-13 09:54:00,
2013-09-13 06:03:00,56.0,55.0,-100.00,North,9,2.0,5.0,98,0.00,,,0.35,0.000000,,2013-09-13 10:03:00,
2013-09-13 06:42:00,56.0,55.0,-100.00,North,1,1.0,5.0,98,0.01,,,0.36,0.000000,,2013-09-13 10:42:00,
2013-09-13 06:53:00,56.0,55.0,-100.00,North,1,1.0,5.0,98,0.01,,,0.36,0.000000,,2013-09-13 10:53:00,
2013-09-13 07:03:00,56.0,55.0,-100.00,North,1,1.0,5.0,98,0.01,,,0.36,0.000000,,2013-09-13 11:03:00,
2013-09-13 07:43:00,56.0,55.0,-100.00,North,11,2.0,6.0,97,0.00,,,0.36,1.000000,,2013-09-13 11:43:00,
2013-09-13 07:52:00,56.0,55.0,-100.00,North,11,2.0,6.0,97,0.00,,,0.36,1.000000,,2013-09-13 11:52:00,
2013-09-13 08:02:00,56.0,55.0,-100.00,North,11,2.0,6.0,97,0.00,,,0.36,1.000000,,2013-09-13 12:02:00,
2013-09-13 08:42:00,56.0,55.0,-100.00,NW,314,2.0,5.0,96,0.00,,,0.36,16.000000,,2013-09-13 12:42:00,
2013-09-13 08:52:00,56.0,55.0,-100.00,NW,314,2.0,5.0,96,0.00,,,0.36,16.000000,,2013-09-13 12:52:00,
2013-09-13 09:02:00,56.0,55.0,-100.00,NW,314,2.0,5.0,96,0.00,,,0.36,16.000000,,2013-09-13 13:02:00,
2013-09-13 09:42:00,60.0,56.0,-100.00,NW,319,4.0,10.0,88,0.00,,,0.36,210.000000,,2013-09-13 13:42:00,
2013-09-13 09:52:00,60.0,56.0,-100.00,NW,319,4.0,10.0,88,0.00,,,0.36,210.000000,,2013-09-13 13:52:00,
2013-09-13 10:02:00,60.0,56.0,-100.00,NW,319,4.0,10.0,88,0.00,,,0.36,210.000000,,2013-09-13 14:02:00,
2013-09-13 10:42:00,62.0,54.0,-100.00,NW,308,5.0,11.0,75,0.00,,,0.36,428.000000,,2013-09-13 14:42:00,
2013-09-13 10:52:00,62.0,54.0,-100.00,NW,308,5.0,11.0,75,0.00,,,0.36,428.000000,,2013-09-13 14:52:00,
2013-09-13 11:02:00,62.0,54.0,-100.00,NW,308,5.0,11.0,75,0.00,,,0.36,428.000000,,2013-09-13 15:02:00,
2013-09-13 11:44:00,64.0,55.0,-100.00,NW,325,7.0,13.0,73,0.00,,,0.36,384.000000,,2013-09-13 15:44:00,
2013-09-13 11:54:00,64.0,55.0,-100.00,NW,325,7.0,13.0,73,0.00,,,0.36,384.000000,,2013-09-13 15:54:00,
2013-09-13 12:04:00,64.0,55.0,-100.00,NW,325,7.0,13.0,73,0.00,,,0.36,384.000000,,2013-09-13 16:04:00,
2013-09-13 12:43:00,62.0,58.0,-100.00,NW,315,4.0,16.0,87,0.04,,,0.40,492.000000,,2013-09-13 16:43:00,
2013-09-13 12:54:00,62.0,58.0,-100.00,NW,315,4.0,16.0,87,0.04,,,0.40,492.000000,,2013-09-13 16:54:00,
2013-09-13 13:04:00,62.0,58.0,-100.00,NW,315,4.0,16.0,87,0.04,,,0.40,492.000000,,2013-09-13 17:04:00,
2013-09-13 13:44:00,65.0,52.0,-100.00,NW,319,5.0,15.0,63,0.00,,,0.40,568.000000,,2013-09-13 17:44:00,
2013-09-13 13:53:00,65.0,52.0,-100.00,NW,319,5.0,15.0,63,0.00,,,0.40,568.000000,,2013-09-13 17:53:00,
2013-09-13 14:02:00,65.0,52.0,-100.00,NW,319,5.0,15.0,63,0.00,,,0.40,568.000000,,2013-09-13 18:02:00,
2013-09-13 14:42:00,66.0,48.0,-100.00,NW,314,6.0,15.0,52,0.00,,,0.40,647.000000,,2013-09-13 18:42:00,
2013-09-13 14:52:00,66.0,48.0,-100.00,NW,314,6.0,15.0,52,0.00,,,0.40,647.000000,,2013-09-13 18:52:00,
2013-09-13 15:02:00,66.0,48.0,-100.00,NW,314,6.0,15.0,52,0.00,,,0.40,647.000000,,2013-09-13 19:02:00,
2013-09-13 15:43:00,64.0,44.0,-100.00,NNW,331,5.0,12.0,49,0.00,,,0.15,594.000000,,2013-09-13 19:43:00,
2013-09-13 15:52:00,64.0,44.0,-100.00,NNW,331,5.0,12.0,49,0.00,,,0.15,594.000000,,2013-09-13 19:52:00,
2013-09-13 16:02:00,64.0,44.0,-100.00,NNW,331,5.0,12.0,49,0.00,,,0.15,594.000000,,2013-09-13 20:02:00,
2013-09-13 16:43:00,65.0,44.0,-100.00,NNW,347,7.0,14.0,46,0.00,,,0.13,479.000000,,2013-09-13 20:43:00,
2013-09-13 16:52:00,65.0,44.0,-100.00,NNW,347,7.0,14.0,46,0.00,,,0.13,479.000000,,2013-09-13 20:52:00,
2013-09-13 17:02:00,65.0,44.0,-100.00,NNW,347,7.0,14.0,46,0.00,,,0.13,479.000000,,2013-09-13 21:02:00,
2013-09-13 17:44:00,61.0,45.0,-100.00,NW,323,5.0,13.0,55,0.00,,,0.13,183.000000,,2013-09-13 21:44:00,
2013-09-13 17:54:00,61.0,45.0,-100.00,NW,323,5.0,13.0,55,0.00,,,0.13,183.000000,,2013-09-13 21:54:00,
2013-09-13 18:04:00,61.0,45.0,-100.00,NW,323,5.0,13.0,55,0.00,,,0.13,183.000000,,2013-09-13 22:04:00,
2013-09-13 18:43:00,59.0,44.0,-100.00,WNW,297,4.0,15.0,57,0.00,,,0.13,177.000000,,2013-09-13 22:43:00,
2013-09-13 18:54:00,59.0,44.0,-100.00,WNW,297,4.0,15.0,57,0.00,,,0.13,177.000000,,2013-09-13 22:54:00,
2013-09-13 19:03:00,59.0,44.0,-100.00,WNW,297,4.0,15.0,57,0.00,,,0.13,177.000000,,2013-09-13 23:03:00,
2013-09-13 19:43:00,55.0,43.0,-100.00,WNW,302,2.0,13.0,65,0.00,,,0.13,43.000000,,2013-09-13 23:43:00,
2013-09-13 19:53:00,55.0,43.0,-100.00,WNW,302,2.0,13.0,65,0.00,,,0.13,43.000000,,2013-09-13 23:53:00,
2013-09-13 20:01:00,55.0,43.0,-100.00,WNW,302,2.0,13.0,65,0.00,,,0.13,43.000000,,2013-09-14 00:01:00,
2013-09-13 20:42:00,54.0,43.0,-100.00,WNW,290,3.0,10.0,67,0.00,,,0.11,2.000000,,2013-09-14 00:42:00,
2013-09-13 20:53:00,54.0,43.0,-100.00,WNW,290,3.0,10.0,67,0.00,,,0.11,2.000000,,2013-09-14 00:53:00,
2013-09-13 21:02:00,54.0,43.0,-100.00,WNW,290,3.0,10.0,67,0.00,,,0.11,2.000000,,2013-09-14 01:02:00,
2013-09-13 21:42:00,53.0,43.0,-100.00,North,3,4.0,11.0,70,0.00,,,0.11,0.000000,,2013-09-14 01:42:00,
2013-09-13 21:52:00,53.0,43.0,-100.00,North,3,4.0,11.0,70,0.00,,,0.11,0.000000,,2013-09-14 01:52:00,
2013-09-13 22:02:00,53.0,43.0,-100.00,North,3,4.0,11.0,70,0.00,,,0.11,0.000000,,2013-09-14 02:02:00,
2013-09-13 22:42:00,52.0,44.0,-100.00,North,5,4.0,13.0,75,0.00,,,0.11,0.000000,,2013-09-14 02:42:00,
2013-09-13 22:52:00,52.0,44.0,-100.00,North,5,4.0,13.0,75,0.00,,,0.11,0.000000,,2013-09-14 02:52:00,
2013-09-13 23:02:00,52.0,44.0,-100.00,North,5,4.0,13.0,75,0.00,,,0.11,0.000000,,2013-09-14 03:02:00,
2013-09-13 23:45:00,50.0,43.0,-100.00,North,358,5.0,11.0,77,0.00,,,0.07,0.000000,,2013-09-14 03:45:00,
2013-09-13 23:55:00,50.0,43.0,-100.00,North,358,5.0,11.0,77,0.00,,,0.07,0.000000,,2013-09-14 03:55:00,